Year,Month,Day,Hour,Minute,Value (Times are PST for temperature in C)
2014,08,24,00,00,21.30
2014,08,24,00,01,21.20
2014,08,24,00,02,21.20
2014,08,24,00,03,21.20
2014,08,24,00,04,21.20
2014,08,24,00,05,21.10
2014,08,24,00,06,21.20
2014,08,24,00,07,21.20
2014,08,24,00,08,21.30
2014,08,24,00,09,21.30
2014,08,24,00,10,21.40
2014,08,24,00,11,21.40
2014,08,24,00,12,21.50
2014,08,24,00,13,21.60
2014,08,24,00,14,21.60
2014,08,24,00,15,21.60
2014,08,24,00,16,21.70
2014,08,24,00,17,21.70
2014,08,24,00,18,21.70
2014,08,24,00,19,21.70
2014,08,24,00,20,21.70
2014,08,24,00,21,21.80
2014,08,24,00,22,21.80
2014,08,24,00,23,21.80
2014,08,24,00,24,21.80
2014,08,24,00,25,21.70
2014,08,24,00,26,21.70
2014,08,24,00,27,21.70
2014,08,24,00,28,21.80
2014,08,24,00,29,21.80
2014,08,24,00,30,21.80
2014,08,24,00,31,21.80
2014,08,24,00,32,21.80
2014,08,24,00,33,21.80
2014,08,24,00,34,21.80
2014,08,24,00,35,21.80
2014,08,24,00,36,21.80
2014,08,24,00,37,21.80
2014,08,24,00,38,21.80
2014,08,24,00,39,21.80
2014,08,24,00,40,21.80
2014,08,24,00,41,21.80
2014,08,24,00,42,21.80
2014,08,24,00,43,21.80
2014,08,24,00,44,21.80
2014,08,24,00,45,21.80
2014,08,24,00,46,21.70
2014,08,24,00,47,21.70
2014,08,24,00,48,21.70
2014,08,24,00,49,21.70
2014,08,24,00,50,21.70
2014,08,24,00,51,21.60
2014,08,24,00,52,21.60
2014,08,24,00,53,21.60
2014,08,24,00,54,21.60
2014,08,24,00,55,21.60
2014,08,24,00,56,21.50
2014,08,24,00,57,21.50
2014,08,24,00,58,21.50
2014,08,24,00,59,21.50
2014,08,24,01,00,21.40
2014,08,24,01,01,21.40
2014,08,24,01,02,21.40
2014,08,24,01,03,21.40
2014,08,24,01,04,21.40
2014,08,24,01,05,21.40
2014,08,24,01,06,21.40
2014,08,24,01,07,21.40
2014,08,24,01,08,21.40
2014,08,24,01,09,21.40
2014,08,24,01,10,21.40
2014,08,24,01,11,21.40
2014,08,24,01,12,21.40
2014,08,24,01,13,21.40
2014,08,24,01,14,21.30
2014,08,24,01,15,21.30
2014,08,24,01,16,21.30
2014,08,24,01,17,21.30
2014,08,24,01,18,21.30
2014,08,24,01,19,21.20
2014,08,24,01,20,21.20
2014,08,24,01,21,21.20
2014,08,24,01,22,21.20
2014,08,24,01,23,21.10
2014,08,24,01,24,21.10
2014,08,24,01,25,21.10
2014,08,24,01,26,21.00
2014,08,24,01,27,21.00
2014,08,24,01,28,20.90
2014,08,24,01,29,20.90
2014,08,24,01,30,20.90
2014,08,24,01,31,20.90
2014,08,24,01,32,20.90
2014,08,24,01,33,20.80
2014,08,24,01,34,20.80
2014,08,24,01,35,20.80
2014,08,24,01,36,20.80
2014,08,24,01,37,20.80
2014,08,24,01,38,20.80
2014,08,24,01,39,20.70
2014,08,24,01,40,20.70
2014,08,24,01,41,20.70
2014,08,24,01,42,20.70
2014,08,24,01,43,20.70
2014,08,24,01,44,20.70
2014,08,24,01,45,20.70
2014,08,24,01,46,20.60
2014,08,24,01,47,20.60
2014,08,24,01,48,20.60
2014,08,24,01,49,20.50
2014,08,24,01,50,20.50
2014,08,24,01,51,20.50
2014,08,24,01,52,20.40
2014,08,24,01,53,20.40
2014,08,24,01,54,20.40
2014,08,24,01,55,20.40
2014,08,24,01,56,20.40
2014,08,24,01,57,20.40
2014,08,24,01,58,20.40
2014,08,24,01,59,20.30
2014,08,24,02,00,20.30
2014,08,24,02,01,20.30
2014,08,24,02,02,20.30
2014,08,24,02,03,20.30
2014,08,24,02,04,20.20
2014,08,24,02,05,20.20
2014,08,24,02,06,20.20
2014,08,24,02,07,20.20
2014,08,24,02,08,20.20
2014,08,24,02,09,20.20
2014,08,24,02,10,20.20
2014,08,24,02,11,20.20
2014,08,24,02,12,20.20
2014,08,24,02,13,20.20
2014,08,24,02,14,20.20
2014,08,24,02,15,20.20
2014,08,24,02,16,20.20
2014,08,24,02,17,20.20
2014,08,24,02,18,20.20
2014,08,24,02,19,20.20
2014,08,24,02,20,20.20
2014,08,24,02,21,20.20
2014,08,24,02,22,20.10
2014,08,24,02,23,20.10
2014,08,24,02,24,20.10
2014,08,24,02,25,20.10
2014,08,24,02,26,20.00
2014,08,24,02,27,19.90
2014,08,24,02,28,19.90
2014,08,24,02,29,19.90
2014,08,24,02,30,19.90
2014,08,24,02,31,19.80
2014,08,24,02,32,19.80
2014,08,24,02,33,19.80
2014,08,24,02,34,19.80
2014,08,24,02,35,19.80
2014,08,24,02,36,19.80
2014,08,24,02,37,19.70
2014,08,24,02,38,19.70
2014,08,24,02,39,19.70
2014,08,24,02,40,19.70
2014,08,24,02,41,19.70
2014,08,24,02,42,19.70
2014,08,24,02,43,19.70
2014,08,24,02,44,19.70
2014,08,24,02,45,19.60
2014,08,24,02,46,19.60
2014,08,24,02,47,19.60
2014,08,24,02,48,19.60
2014,08,24,02,49,19.60
2014,08,24,02,50,19.60
2014,08,24,02,51,19.60
2014,08,24,02,52,19.60
2014,08,24,02,53,19.60
2014,08,24,02,54,19.60
2014,08,24,02,55,19.60
2014,08,24,02,56,19.60
2014,08,24,02,57,19.60
2014,08,24,02,58,19.60
2014,08,24,02,59,19.60
2014,08,24,03,00,19.60
2014,08,24,03,01,19.60
2014,08,24,03,02,19.60
2014,08,24,03,03,19.60
2014,08,24,03,04,19.60
2014,08,24,03,05,19.60
2014,08,24,03,06,19.60
2014,08,24,03,07,19.60
2014,08,24,03,08,19.60
2014,08,24,03,09,19.60
2014,08,24,03,10,19.60
2014,08,24,03,11,19.50
2014,08,24,03,12,19.50
2014,08,24,03,13,19.50
2014,08,24,03,14,19.40
2014,08,24,03,15,19.40
2014,08,24,03,16,19.40
2014,08,24,03,17,19.40
2014,08,24,03,18,19.40
2014,08,24,03,19,19.40
2014,08,24,03,20,19.40
2014,08,24,03,21,19.40
2014,08,24,03,22,19.30
2014,08,24,03,23,19.30
2014,08,24,03,24,19.30
2014,08,24,03,25,19.30
2014,08,24,03,26,19.30
2014,08,24,03,27,19.40
2014,08,24,03,28,19.40
2014,08,24,03,29,19.40
2014,08,24,03,30,19.40
2014,08,24,03,31,19.40
2014,08,24,03,32,19.40
2014,08,24,03,33,19.40
2014,08,24,03,34,19.50
2014,08,24,03,35,19.40
2014,08,24,03,36,19.40
2014,08,24,03,37,19.40
2014,08,24,03,38,19.50
2014,08,24,03,39,19.50
2014,08,24,03,40,19.50
2014,08,24,03,41,19.50
2014,08,24,03,42,19.50
2014,08,24,03,43,19.50
2014,08,24,03,44,19.50
2014,08,24,03,45,19.40
2014,08,24,03,46,19.40
2014,08,24,03,47,19.40
2014,08,24,03,48,19.40
2014,08,24,03,49,19.40
2014,08,24,03,50,19.40
2014,08,24,03,51,19.40
2014,08,24,03,52,19.40
2014,08,24,03,53,19.40
2014,08,24,03,54,19.40
2014,08,24,03,55,19.40
2014,08,24,03,56,19.40
2014,08,24,03,57,19.40
2014,08,24,03,58,19.40
2014,08,24,03,59,19.30
2014,08,24,04,00,19.30
2014,08,24,04,01,19.30
2014,08,24,04,02,19.30
2014,08,24,04,03,19.20
2014,08,24,04,04,19.20
2014,08,24,04,05,19.20
2014,08,24,04,06,19.20
2014,08,24,04,07,19.10
2014,08,24,04,08,19.10
2014,08,24,04,09,19.10
2014,08,24,04,10,19.10
2014,08,24,04,11,19.00
2014,08,24,04,12,19.00
2014,08,24,04,13,18.90
2014,08,24,04,14,18.90
2014,08,24,04,15,18.90
2014,08,24,04,16,18.80
2014,08,24,04,17,18.80
2014,08,24,04,18,18.70
2014,08,24,04,19,18.70
2014,08,24,04,20,18.70
2014,08,24,04,21,18.60
2014,08,24,04,22,18.60
2014,08,24,04,23,18.60
2014,08,24,04,24,18.60
2014,08,24,04,25,18.60
2014,08,24,04,26,18.50
2014,08,24,04,27,18.50
2014,08,24,04,28,18.50
2014,08,24,04,29,18.50
2014,08,24,04,30,18.60
2014,08,24,04,31,18.60
2014,08,24,04,32,18.60
2014,08,24,04,33,18.60
2014,08,24,04,34,18.60
2014,08,24,04,35,18.60
2014,08,24,04,36,18.50
2014,08,24,04,37,18.50
2014,08,24,04,38,18.50
2014,08,24,04,39,18.50
2014,08,24,04,40,18.50
2014,08,24,04,41,18.40
2014,08,24,04,42,18.40
2014,08,24,04,43,18.40
2014,08,24,04,44,18.40
2014,08,24,04,45,18.40
2014,08,24,04,46,18.40
2014,08,24,04,47,18.40
2014,08,24,04,48,18.30
2014,08,24,04,49,18.30
2014,08,24,04,50,18.30
2014,08,24,04,51,18.30
2014,08,24,04,52,18.20
2014,08,24,04,53,18.20
2014,08,24,04,54,18.20
2014,08,24,04,55,18.20
2014,08,24,04,56,18.20
2014,08,24,04,57,18.20
2014,08,24,04,58,18.20
2014,08,24,04,59,18.10
2014,08,24,05,00,18.10
2014,08,24,05,01,18.10
2014,08,24,05,02,18.10
2014,08,24,05,03,18.10
2014,08,24,05,04,18.10
2014,08,24,05,05,18.00
2014,08,24,05,06,18.00
2014,08,24,05,07,18.00
2014,08,24,05,08,17.90
2014,08,24,05,09,17.90
2014,08,24,05,10,17.90
2014,08,24,05,11,17.80
2014,08,24,05,12,17.80
2014,08,24,05,13,17.80
2014,08,24,05,14,17.80
2014,08,24,05,15,17.70
2014,08,24,05,16,17.70
2014,08,24,05,17,17.70
2014,08,24,05,18,17.70
2014,08,24,05,19,17.70
2014,08,24,05,20,17.70
2014,08,24,05,21,17.70
2014,08,24,05,22,17.70
2014,08,24,05,23,17.70
2014,08,24,05,24,17.80
2014,08,24,05,25,17.80
2014,08,24,05,26,17.80
2014,08,24,05,27,17.80
2014,08,24,05,28,17.80
2014,08,24,05,29,17.90
2014,08,24,05,30,17.80
2014,08,24,05,31,17.80
2014,08,24,05,32,17.80
2014,08,24,05,33,17.80
2014,08,24,05,34,17.80
2014,08,24,05,35,17.80
2014,08,24,05,36,17.70
2014,08,24,05,37,17.70
2014,08,24,05,38,17.70
2014,08,24,05,39,17.70
2014,08,24,05,40,17.60
2014,08,24,05,41,17.60
2014,08,24,05,42,17.60
2014,08,24,05,43,17.60
2014,08,24,05,44,17.60
2014,08,24,05,45,17.60
2014,08,24,05,46,17.60
2014,08,24,05,47,17.60
2014,08,24,05,48,17.60
2014,08,24,05,49,17.60
2014,08,24,05,50,17.60
2014,08,24,05,51,17.60
2014,08,24,05,52,17.60
2014,08,24,05,53,17.60
2014,08,24,05,54,17.60
2014,08,24,05,55,17.60
2014,08,24,05,56,17.50
2014,08,24,05,57,17.50
2014,08,24,05,58,17.50
2014,08,24,05,59,17.50
2014,08,24,06,00,17.40
2014,08,24,06,01,17.40
2014,08,24,06,02,17.40
2014,08,24,06,03,17.40
2014,08,24,06,04,17.40
2014,08,24,06,05,17.40
2014,08,24,06,06,17.40
2014,08,24,06,07,17.40
2014,08,24,06,08,17.40
2014,08,24,06,09,17.40
2014,08,24,06,10,17.40
2014,08,24,06,11,17.40
2014,08,24,06,12,17.40
2014,08,24,06,13,17.40
2014,08,24,06,14,17.40
2014,08,24,06,15,17.40
2014,08,24,06,16,17.40
2014,08,24,06,17,17.40
2014,08,24,06,18,17.40
2014,08,24,06,19,17.40
2014,08,24,06,20,17.40
2014,08,24,06,21,17.40
2014,08,24,06,22,17.40
2014,08,24,06,23,17.40
2014,08,24,06,24,17.30
2014,08,24,06,25,17.30
2014,08,24,06,26,17.30
2014,08,24,06,27,17.30
2014,08,24,06,28,17.30
2014,08,24,06,29,17.30
2014,08,24,06,30,17.30
2014,08,24,06,31,17.30
2014,08,24,06,32,17.30
2014,08,24,06,33,17.30
2014,08,24,06,34,17.30
2014,08,24,06,35,17.30
2014,08,24,06,36,17.30
2014,08,24,06,37,17.30
2014,08,24,06,38,17.30
2014,08,24,06,39,17.30
2014,08,24,06,40,17.30
2014,08,24,06,41,17.30
2014,08,24,06,42,17.30
2014,08,24,06,43,17.30
2014,08,24,06,44,17.30
2014,08,24,06,45,17.30
2014,08,24,06,46,17.30
2014,08,24,06,47,17.30
2014,08,24,06,48,17.30
2014,08,24,06,49,17.20
2014,08,24,06,50,17.20
2014,08,24,06,51,17.30
2014,08,24,06,52,17.30
2014,08,24,06,53,17.30
2014,08,24,06,54,17.30
2014,08,24,06,55,17.30
2014,08,24,06,56,17.30
2014,08,24,06,57,17.30
2014,08,24,06,58,17.30
2014,08,24,06,59,17.30
2014,08,24,07,00,17.20
2014,08,24,07,01,17.20
2014,08,24,07,02,17.20
2014,08,24,07,03,17.20
2014,08,24,07,04,17.30
2014,08,24,07,05,17.30
2014,08,24,07,06,17.30
2014,08,24,07,07,17.30
2014,08,24,07,08,17.30
2014,08,24,07,09,17.30
2014,08,24,07,10,17.30
2014,08,24,07,11,17.30
2014,08,24,07,12,17.30
2014,08,24,07,13,17.30
2014,08,24,07,14,17.40
2014,08,24,07,15,17.40
2014,08,24,07,16,17.40
2014,08,24,07,17,17.40
2014,08,24,07,18,17.40
2014,08,24,07,19,17.40
2014,08,24,07,20,17.40
2014,08,24,07,21,17.40
2014,08,24,07,22,17.40
2014,08,24,07,23,17.40
2014,08,24,07,24,17.40
2014,08,24,07,25,17.40
2014,08,24,07,26,17.40
2014,08,24,07,27,17.40
2014,08,24,07,28,17.40
2014,08,24,07,29,17.40
2014,08,24,07,30,17.40
2014,08,24,07,31,17.40
2014,08,24,07,32,17.40
2014,08,24,07,33,17.40
2014,08,24,07,34,17.50
2014,08,24,07,35,17.50
2014,08,24,07,36,17.50
2014,08,24,07,37,17.50
2014,08,24,07,38,17.60
2014,08,24,07,39,17.60
2014,08,24,07,40,17.60
2014,08,24,07,41,17.60
2014,08,24,07,42,17.60
2014,08,24,07,43,17.60
2014,08,24,07,44,17.70
2014,08,24,07,45,17.70
2014,08,24,07,46,17.70
2014,08,24,07,47,17.70
2014,08,24,07,48,17.70
2014,08,24,07,49,17.80
2014,08,24,07,50,17.80
2014,08,24,07,51,17.80
2014,08,24,07,52,17.80
2014,08,24,07,53,17.80
2014,08,24,07,54,17.90
2014,08,24,07,55,17.90
2014,08,24,07,56,17.90
2014,08,24,07,57,17.90
2014,08,24,07,58,18.00
2014,08,24,07,59,18.00
2014,08,24,08,00,18.00
2014,08,24,08,01,18.10
2014,08,24,08,02,18.10
2014,08,24,08,03,18.10
2014,08,24,08,04,18.10
2014,08,24,08,05,18.10
2014,08,24,08,06,18.10
2014,08,24,08,07,18.10
2014,08,24,08,08,18.10
2014,08,24,08,09,18.10
2014,08,24,08,10,18.10
2014,08,24,08,11,18.10
2014,08,24,08,12,18.10
2014,08,24,08,13,18.10
2014,08,24,08,14,18.10
2014,08,24,08,15,18.20
2014,08,24,08,16,18.20
2014,08,24,08,17,18.20
2014,08,24,08,18,18.20
2014,08,24,08,19,18.20
2014,08,24,08,20,18.30
2014,08,24,08,21,18.30
2014,08,24,08,22,18.30
2014,08,24,08,23,18.30
2014,08,24,08,24,18.30
2014,08,24,08,25,18.30
2014,08,24,08,26,18.30
2014,08,24,08,27,18.30
2014,08,24,08,28,18.30
2014,08,24,08,29,18.30
2014,08,24,08,30,18.30
2014,08,24,08,31,18.30
2014,08,24,08,32,18.40
2014,08,24,08,33,18.40
2014,08,24,08,34,18.40
2014,08,24,08,35,18.40
2014,08,24,08,36,18.40
2014,08,24,08,37,18.50
2014,08,24,08,38,18.50
2014,08,24,08,39,18.40
2014,08,24,08,40,18.40
2014,08,24,08,41,18.40
2014,08,24,08,42,18.40
2014,08,24,08,43,18.40
2014,08,24,08,44,18.40
2014,08,24,08,45,18.40
2014,08,24,08,46,18.30
2014,08,24,08,47,18.30
2014,08,24,08,48,18.30
2014,08,24,08,49,18.30
2014,08,24,08,50,18.20
2014,08,24,08,51,18.20
2014,08,24,08,52,18.20
2014,08,24,08,53,18.20
2014,08,24,08,54,18.20
2014,08,24,08,55,18.20
2014,08,24,08,56,18.20
2014,08,24,08,57,18.20
2014,08,24,08,58,18.30
2014,08,24,08,59,18.30
2014,08,24,09,00,18.30
2014,08,24,09,01,18.30
2014,08,24,09,02,18.30
2014,08,24,09,03,18.30
2014,08,24,09,04,18.30
2014,08,24,09,05,18.30
2014,08,24,09,06,18.40
2014,08,24,09,07,18.40
2014,08,24,09,08,18.40
2014,08,24,09,09,18.50
2014,08,24,09,10,18.50
2014,08,24,09,11,18.50
2014,08,24,09,12,18.60
2014,08,24,09,13,18.60
2014,08,24,09,14,18.60
2014,08,24,09,15,18.60
2014,08,24,09,16,18.60
2014,08,24,09,17,18.70
2014,08,24,09,18,18.70
2014,08,24,09,19,18.80
2014,08,24,09,20,18.80
2014,08,24,09,21,18.80
2014,08,24,09,22,18.90
2014,08,24,09,23,18.90
2014,08,24,09,24,18.90
2014,08,24,09,25,19.00
2014,08,24,09,26,19.00
2014,08,24,09,27,19.00
2014,08,24,09,28,19.00
2014,08,24,09,29,19.10
2014,08,24,09,30,19.00
2014,08,24,09,31,19.00
2014,08,24,09,32,19.00
2014,08,24,09,33,19.00
2014,08,24,09,34,19.00
2014,08,24,09,35,18.90
2014,08,24,09,36,18.90
2014,08,24,09,37,18.90
2014,08,24,09,38,18.90
2014,08,24,09,39,18.90
2014,08,24,09,40,18.90
2014,08,24,09,41,18.90
2014,08,24,09,42,18.90
2014,08,24,09,43,18.90
2014,08,24,09,44,18.90
2014,08,24,09,45,18.90
2014,08,24,09,46,18.90
2014,08,24,09,47,18.90
2014,08,24,09,48,18.90
2014,08,24,09,49,18.90
2014,08,24,09,50,18.80
2014,08,24,09,51,18.80
2014,08,24,09,52,18.80
2014,08,24,09,53,18.90
2014,08,24,09,54,18.90
2014,08,24,09,55,19.00
2014,08,24,09,56,19.00
2014,08,24,09,57,19.00
2014,08,24,09,58,19.10
2014,08,24,09,59,19.10
2014,08,24,10,00,19.10
2014,08,24,10,01,19.10
2014,08,24,10,02,19.00
2014,08,24,10,03,19.00
2014,08,24,10,04,18.90
2014,08,24,10,05,19.00
2014,08,24,10,06,19.00
2014,08,24,10,07,19.00
2014,08,24,10,08,19.00
2014,08,24,10,09,19.10
2014,08,24,10,10,19.10
2014,08,24,10,11,19.20
2014,08,24,10,12,19.20
2014,08,24,10,13,19.20
2014,08,24,10,14,19.20
2014,08,24,10,15,19.20
2014,08,24,10,16,19.20
2014,08,24,10,17,19.10
2014,08,24,10,18,19.10
2014,08,24,10,19,19.00
2014,08,24,10,20,18.90
2014,08,24,10,21,18.90
2014,08,24,10,22,18.90
2014,08,24,10,23,18.90
2014,08,24,10,24,18.90
2014,08,24,10,25,19.00
2014,08,24,10,26,19.10
2014,08,24,10,27,19.10
2014,08,24,10,28,19.10
2014,08,24,10,29,19.10
2014,08,24,10,30,19.00
2014,08,24,10,31,19.00
2014,08,24,10,32,18.90
2014,08,24,10,33,18.80
2014,08,24,10,34,18.70
2014,08,24,10,35,18.70
2014,08,24,10,36,18.60
2014,08,24,10,37,18.60
2014,08,24,10,38,18.60
2014,08,24,10,39,18.60
2014,08,24,10,40,18.60
2014,08,24,10,41,18.60
2014,08,24,10,42,18.70
2014,08,24,10,43,18.70
2014,08,24,10,44,18.70
2014,08,24,10,45,18.70
2014,08,24,10,46,18.60
2014,08,24,10,47,18.60
2014,08,24,10,48,18.70
2014,08,24,10,49,18.70
2014,08,24,10,50,18.80
2014,08,24,10,51,18.80
2014,08,24,10,52,18.80
2014,08,24,10,53,18.80
2014,08,24,10,54,18.80
2014,08,24,10,55,18.80
2014,08,24,10,56,18.80
2014,08,24,10,57,18.90
2014,08,24,10,58,18.90
2014,08,24,10,59,18.90
2014,08,24,11,00,18.90
2014,08,24,11,01,18.90
2014,08,24,11,02,18.90
2014,08,24,11,03,18.90
2014,08,24,11,04,18.80
2014,08,24,11,05,18.80
2014,08,24,11,06,18.80
2014,08,24,11,07,18.80
2014,08,24,11,08,18.90
2014,08,24,11,09,18.80
2014,08,24,11,10,18.80
2014,08,24,11,11,18.80
2014,08,24,11,12,18.80
2014,08,24,11,13,18.80
2014,08,24,11,14,18.80
2014,08,24,11,15,18.90
2014,08,24,11,16,18.90
2014,08,24,11,17,19.00
2014,08,24,11,18,19.00
2014,08,24,11,19,19.10
2014,08,24,11,20,19.10
2014,08,24,11,21,19.10
2014,08,24,11,22,19.10
2014,08,24,11,23,19.10
2014,08,24,11,24,19.10
2014,08,24,11,25,19.10
2014,08,24,11,26,19.10
2014,08,24,11,27,19.00
2014,08,24,11,28,18.90
2014,08,24,11,29,18.80
2014,08,24,11,30,18.80
2014,08,24,11,31,18.80
2014,08,24,11,32,18.80
2014,08,24,11,33,18.80
2014,08,24,11,34,18.90
2014,08,24,11,35,18.90
2014,08,24,11,36,18.90
2014,08,24,11,37,18.90
2014,08,24,11,38,19.00
2014,08,24,11,39,19.00
2014,08,24,11,40,19.00
2014,08,24,11,41,19.10
2014,08,24,11,42,19.10
2014,08,24,11,43,19.10
2014,08,24,11,44,19.10
2014,08,24,11,45,19.10
2014,08,24,11,46,19.10
2014,08,24,11,47,19.10
2014,08,24,11,48,19.00
2014,08,24,11,49,19.10
2014,08,24,11,50,19.10
2014,08,24,11,51,19.10
2014,08,24,11,52,19.10
2014,08,24,11,53,19.10
2014,08,24,11,54,19.10
2014,08,24,11,55,19.10
2014,08,24,11,56,19.00
2014,08,24,11,57,19.00
2014,08,24,11,58,19.00
2014,08,24,11,59,18.90
2014,08,24,12,00,18.90
2014,08,24,12,01,18.80
2014,08,24,12,02,18.90
2014,08,24,12,03,18.90
2014,08,24,12,04,18.90
2014,08,24,12,05,18.90
2014,08,24,12,06,18.90
2014,08,24,12,07,19.00
2014,08,24,12,08,19.10
2014,08,24,12,09,19.10
2014,08,24,12,10,19.10
2014,08,24,12,11,19.10
2014,08,24,12,12,19.10
2014,08,24,12,13,19.10
2014,08,24,12,14,19.20
2014,08,24,12,15,19.20
2014,08,24,12,16,19.10
2014,08,24,12,17,19.20
2014,08,24,12,18,19.20
2014,08,24,12,19,19.30
2014,08,24,12,20,19.40
2014,08,24,12,21,19.40
2014,08,24,12,22,19.40
2014,08,24,12,23,19.30
2014,08,24,12,24,19.30
2014,08,24,12,25,19.30
2014,08,24,12,26,19.30
2014,08,24,12,27,19.30
2014,08,24,12,28,19.30
2014,08,24,12,29,19.30
2014,08,24,12,30,19.40
2014,08,24,12,31,19.40
2014,08,24,12,32,19.50
2014,08,24,12,33,19.50
2014,08,24,12,34,19.60
2014,08,24,12,35,19.50
2014,08,24,12,36,19.50
2014,08,24,12,37,19.50
2014,08,24,12,38,19.40
2014,08,24,12,39,19.40
2014,08,24,12,40,19.30
2014,08,24,12,41,19.30
2014,08,24,12,42,19.40
2014,08,24,12,43,19.40
2014,08,24,12,44,19.40
2014,08,24,12,45,19.40
2014,08,24,12,46,19.50
2014,08,24,12,47,19.40
2014,08,24,12,48,19.40
2014,08,24,12,49,19.40
2014,08,24,12,50,19.40
2014,08,24,12,51,19.50
2014,08,24,12,52,19.60
2014,08,24,12,53,19.70
2014,08,24,12,54,19.80
2014,08,24,12,55,19.90
2014,08,24,12,56,20.00
2014,08,24,12,57,20.00
2014,08,24,12,58,20.10
2014,08,24,12,59,20.10
2014,08,24,13,00,20.10
2014,08,24,13,01,20.10
2014,08,24,13,02,20.10
2014,08,24,13,03,20.10
2014,08,24,13,04,20.00
2014,08,24,13,05,20.00
2014,08,24,13,06,19.90
2014,08,24,13,07,19.90
2014,08,24,13,08,19.90
2014,08,24,13,09,19.90
2014,08,24,13,10,19.90
2014,08,24,13,11,19.90
2014,08,24,13,12,19.90
2014,08,24,13,13,19.80
2014,08,24,13,14,19.90
2014,08,24,13,15,19.80
2014,08,24,13,16,19.80
2014,08,24,13,17,19.90
2014,08,24,13,18,19.90
2014,08,24,13,19,19.90
2014,08,24,13,20,19.90
2014,08,24,13,21,19.90
2014,08,24,13,22,19.90
2014,08,24,13,23,20.00
2014,08,24,13,24,20.10
2014,08,24,13,25,20.20
2014,08,24,13,26,20.20
2014,08,24,13,27,20.30
2014,08,24,13,28,20.30
2014,08,24,13,29,20.30
2014,08,24,13,30,20.20
2014,08,24,13,31,20.20
2014,08,24,13,32,20.10
2014,08,24,13,33,20.00
2014,08,24,13,34,20.00
2014,08,24,13,35,20.00
2014,08,24,13,36,20.10
2014,08,24,13,37,20.20
2014,08,24,13,38,20.20
2014,08,24,13,39,20.20
2014,08,24,13,40,20.30
2014,08,24,13,41,20.30
2014,08,24,13,42,20.30
2014,08,24,13,43,20.30
2014,08,24,13,44,20.30
2014,08,24,13,45,20.30
2014,08,24,13,46,20.40
2014,08,24,13,47,20.40
2014,08,24,13,48,20.40
2014,08,24,13,49,20.40
2014,08,24,13,50,20.40
2014,08,24,13,51,20.40
2014,08,24,13,52,20.40
2014,08,24,13,53,20.30
2014,08,24,13,54,20.40
2014,08,24,13,55,20.40
2014,08,24,13,56,20.40
2014,08,24,13,57,20.50
2014,08,24,13,58,20.50
2014,08,24,13,59,20.50
2014,08,24,14,00,20.60
2014,08,24,14,01,20.60
2014,08,24,14,02,20.70
2014,08,24,14,03,20.70
2014,08,24,14,04,20.70
2014,08,24,14,05,20.70
2014,08,24,14,06,20.80
2014,08,24,14,07,20.80
2014,08,24,14,08,20.80
2014,08,24,14,09,20.90
2014,08,24,14,10,20.90
2014,08,24,14,11,20.90
2014,08,24,14,12,21.00
2014,08,24,14,13,21.00
2014,08,24,14,14,21.10
2014,08,24,14,15,21.30
2014,08,24,14,16,21.30
2014,08,24,14,17,21.30
2014,08,24,14,18,21.30
2014,08,24,14,19,21.40
2014,08,24,14,20,21.40
2014,08,24,14,21,21.40
2014,08,24,14,22,21.40
2014,08,24,14,23,21.40
2014,08,24,14,24,21.40
2014,08,24,14,25,21.40
2014,08,24,14,26,21.40
2014,08,24,14,27,21.40
2014,08,24,14,28,21.50
2014,08,24,14,29,21.50
2014,08,24,14,30,21.50
2014,08,24,14,31,21.40
2014,08,24,14,32,21.40
2014,08,24,14,33,21.40
2014,08,24,14,34,21.40
2014,08,24,14,35,21.40
2014,08,24,14,36,21.40
2014,08,24,14,37,21.40
2014,08,24,14,38,21.50
2014,08,24,14,39,21.50
2014,08,24,14,40,21.50
2014,08,24,14,41,21.50
2014,08,24,14,42,21.50
2014,08,24,14,43,21.60
2014,08,24,14,44,21.70
2014,08,24,14,45,21.70
2014,08,24,14,46,21.60
2014,08,24,14,47,21.60
2014,08,24,14,48,21.60
2014,08,24,14,49,21.60
2014,08,24,14,50,21.50
2014,08,24,14,51,21.50
2014,08,24,14,52,21.50
2014,08,24,14,53,21.60
2014,08,24,14,54,21.50
2014,08,24,14,55,21.50
2014,08,24,14,56,21.50
2014,08,24,14,57,21.50
2014,08,24,14,58,21.50
2014,08,24,14,59,21.60
2014,08,24,15,00,21.60
2014,08,24,15,01,21.70
2014,08,24,15,02,21.70
2014,08,24,15,03,21.70
2014,08,24,15,04,21.80
2014,08,24,15,05,21.80
2014,08,24,15,06,21.80
2014,08,24,15,07,21.90
2014,08,24,15,08,22.00
2014,08,24,15,09,22.10
2014,08,24,15,10,22.20
2014,08,24,15,11,22.30
2014,08,24,15,12,22.30
2014,08,24,15,13,22.30
2014,08,24,15,14,22.40
2014,08,24,15,15,22.40
2014,08,24,15,16,22.40
2014,08,24,15,17,22.50
2014,08,24,15,18,22.50
2014,08,24,15,19,22.60
2014,08,24,15,20,22.60
2014,08,24,15,21,22.60
2014,08,24,15,22,22.70
2014,08,24,15,23,22.70
2014,08,24,15,24,22.70
2014,08,24,15,25,22.60
2014,08,24,15,26,22.60
2014,08,24,15,27,22.60
2014,08,24,15,28,22.60
2014,08,24,15,29,22.60
2014,08,24,15,30,22.60
2014,08,24,15,31,22.60
2014,08,24,15,32,22.60
2014,08,24,15,33,22.70
2014,08,24,15,34,22.70
2014,08,24,15,35,22.70
2014,08,24,15,36,22.70
2014,08,24,15,37,22.70
2014,08,24,15,38,22.80
2014,08,24,15,39,22.80
2014,08,24,15,40,22.80
2014,08,24,15,41,22.90
2014,08,24,15,42,23.00
2014,08,24,15,43,23.00
2014,08,24,15,44,23.00
2014,08,24,15,45,23.00
2014,08,24,15,46,23.00
2014,08,24,15,47,23.00
2014,08,24,15,48,23.00
2014,08,24,15,49,23.00
2014,08,24,15,50,23.10
2014,08,24,15,51,23.00
2014,08,24,15,52,23.10
2014,08,24,15,53,23.10
2014,08,24,15,54,23.00
2014,08,24,15,55,23.00
2014,08,24,15,56,23.00
2014,08,24,15,57,23.00
2014,08,24,15,58,23.00
2014,08,24,15,59,23.00
2014,08,24,16,00,23.00
2014,08,24,16,01,23.00
2014,08,24,16,02,23.00
2014,08,24,16,03,23.00
2014,08,24,16,04,23.00
2014,08,24,16,05,23.00
2014,08,24,16,06,23.00
2014,08,24,16,07,23.10
2014,08,24,16,08,23.10
2014,08,24,16,09,23.20
2014,08,24,16,10,23.30
2014,08,24,16,11,23.40
2014,08,24,16,12,23.40
2014,08,24,16,13,23.40
2014,08,24,16,14,23.40
2014,08,24,16,15,23.30
2014,08,24,16,16,23.30
2014,08,24,16,17,23.30
2014,08,24,16,18,23.30
2014,08,24,16,19,23.20
2014,08,24,16,20,23.20
2014,08,24,16,21,23.20
2014,08,24,16,22,23.20
2014,08,24,16,23,23.20
2014,08,24,16,24,23.20
2014,08,24,16,25,23.30
2014,08,24,16,26,23.40
2014,08,24,16,27,23.40
2014,08,24,16,28,23.40
2014,08,24,16,29,23.40
2014,08,24,16,30,23.50
2014,08,24,16,31,23.50
2014,08,24,16,32,23.60
2014,08,24,16,33,23.60
2014,08,24,16,34,23.70
2014,08,24,16,35,23.70
2014,08,24,16,36,23.80
2014,08,24,16,37,23.90
2014,08,24,16,38,24.00
2014,08,24,16,39,24.00
2014,08,24,16,40,24.10
2014,08,24,16,41,24.10
2014,08,24,16,42,24.20
2014,08,24,16,43,24.20
2014,08,24,16,44,24.20
2014,08,24,16,45,24.20
2014,08,24,16,46,24.20
2014,08,24,16,47,24.20
2014,08,24,16,48,24.30
2014,08,24,16,49,24.30
2014,08,24,16,50,24.30
2014,08,24,16,51,24.30
2014,08,24,16,52,24.20
2014,08,24,16,53,24.30
2014,08,24,16,54,24.20
2014,08,24,16,55,24.20
2014,08,24,16,56,24.20
2014,08,24,16,57,24.20
2014,08,24,16,58,24.10
2014,08,24,16,59,24.10
2014,08,24,17,00,24.20
2014,08,24,17,01,24.20
2014,08,24,17,02,24.20
2014,08,24,17,03,24.20
2014,08,24,17,04,24.30
2014,08,24,17,05,24.30
2014,08,24,17,06,24.30
2014,08,24,17,07,24.40
2014,08,24,17,08,24.40
2014,08,24,17,09,24.40
2014,08,24,17,10,24.30
2014,08,24,17,11,24.30
2014,08,24,17,12,24.30
2014,08,24,17,13,24.30
2014,08,24,17,14,24.30
2014,08,24,17,15,24.30
2014,08,24,17,16,24.30
2014,08,24,17,17,24.30
2014,08,24,17,18,24.30
2014,08,24,17,19,24.40